This is the latest recevied weather packets stored in our database for station/object DL2GPS-3. If no packets are shown the sender has not sent any weather packets the latest 10 day(s).
| Time | Temp. | Humidity | Pressure | Rain* | Wind** | Luminosity | Snow |
|---|---|---|---|---|---|---|---|
| 1777832242 | 12.78° C | 52% | 1016.7 hPa | - | - | - | - |
| 1777831638 | 12.78° C | 52% | 1016.7 hPa | - | - | - | - |
| 1777831032 | 12.78° C | 52% | 1016.7 hPa | - | - | - | - |
| 1777830428 | 13.33° C | 52% | 1016.7 hPa | - | - | - | - |
| 1777829822 | 13.33° C | 52% | 1016.8 hPa | - | - | - | - |
| 1777829218 | 13.89° C | 50% | 1016.9 hPa | - | - | - | - |
| 1777828613 | 13.89° C | 49% | 1017 hPa | - | - | - | - |
| 1777828008 | 13.89° C | 50% | 1017.1 hPa | - | - | - | - |
| 1777827402 | 13.89° C | 50% | 1017.1 hPa | - | - | - | - |
| 1777826797 | 14.44° C | 50% | 1017.2 hPa | - | - | - | - |
| 1777826192 | 14.44° C | 51% | 1017.1 hPa | - | - | - | - |
| 1777825586 | 15° C | 45% | 1016.9 hPa | - | - | - | - |
| 1777824981 | 15.56° C | 40% | 1017 hPa | - | - | - | - |
| 1777824376 | 16.11° C | 40% | 1016.9 hPa | - | - | - | - |
| 1777823771 | 16.67° C | 40% | 1016.8 hPa | - | - | - | - |
| 1777823167 | 16.67° C | 39% | 1016.6 hPa | - | - | - | - |
| 1777822561 | 17.22° C | 38% | 1016.8 hPa | - | - | - | - |
| 1777821956 | 17.78° C | 35% | 1016.7 hPa | - | - | - | - |
| 1777821352 | 18.33° C | 33% | 1016.6 hPa | - | - | - | - |
| 1777820747 | 19.44° C | 33% | 1016.5 hPa | - | - | - | - |
| 1777820141 | 20.56° C | 31% | 1016.1 hPa | - | - | - | - |
| 1777819536 | 22.22° C | 29% | 1016.2 hPa | - | - | - | - |
| 1777818931 | 22.22° C | 30% | 1016.4 hPa | - | - | - | - |
| 1777818326 | 22.22° C | 31% | 1016.5 hPa | - | - | - | - |
| 1777817720 | 22.78° C | 32% | 1016.5 hPa | - | - | - | - |
* Rain since midnight (hover to see other rain measurements)
** Current wind speed in m/s (hover to see current wind gust speed)